Flag for Canada Weather past 2 weeks in Peterborough, Ontario, Canada

Now
39 °F

Overcast.


Feels Like: 29 °F
Forecast: 35 / 50 °F
Wind: 20 mph from North

Location: Peterborough Airport


UV Index: 3 (Moderate)

Visibility: 9 mi


Pressure: 29.88 "Hg

Humidity: 75%

Dew point: 32 °F

Location of PeterboroughLocation

Historic Weather in Peterborough

°F

Peterborough temperature yesterday

Maximum temperature yesterday: 54 °F (at 12:00 AM)
Minimum temperature yesterday: 39 °F (at 9:00 PM)
Average temperature yesterday: 47 °F

Past Weeks' High & Low Weather Summary

 TemperatureHumidityPressure
High70 °F (Apr 14, 10:50 AM)100% (Apr 8, 10:00 AM)30.64 "Hg (Apr 8, 10:00 AM)
Low19 °F (Apr 16, 5:00 AM)26% (Apr 19, 6:00 PM)29.34 "Hg (Apr 8, 10:00 AM)
Average43 °F74%30.00 "Hg
* Reported Apr 8 10:00 AM — Apr 23 10:00 AM, Peterborough, Weather by CustomWeather, © 2014

Note: Actual official high and low records may vary slightly from our data, if they occured in-between our weather recording intervals... More about our weather records

Advertising

Historic Weather Conditions — Data for Previous 24 hours

 ConditionsComfort  
Time TempWeatherWind HumidityBarometerVisibility
10:00 AM
Apr 23
39 °FOvercast.20 mph75%29.86 "Hg9 mi
9:00 AM37 °FOvercast.17 mph87%29.85 "Hg9 mi
8:01 AM37 °FLight rain. Overcast.12 mph87%29.84 "Hg9 mi
7:00 AM37 °FMostly cloudy.13 mph87%29.81 "Hg9 mi
6:46 AM37 °FMostly cloudy.14 mph93%29.80 "Hg9 mi
6:00 AM37 °FMostly cloudy.15 mph93%29.78 "Hg9 mi
5:56 AM39 °FMostly cloudy.17 mph87%29.77 "Hg9 mi
5:00 AM39 °FMostly cloudy.12 mph93%29.74 "Hg9 mi
4:47 AM39 °FOvercast.10 mph93%29.73 "Hg9 mi
4:00 AM39 °FLight rain. Overcast.12 mph100%29.71 "Hg9 mi
3:00 AM41 °FLight rain. Overcast.13 mph93%29.68 "Hg9 mi
2:58 AM41 °FLight rain. Overcast.10 mph93%29.68 "Hg9 mi
2:00 AM39 °FChilly.N/A93%29.67 "HgN/A
1:00 AM39 °FChilly.N/A93%29.67 "HgN/A
12:45 AM39 °FChilly.N/A93%29.66 "Hg8 mi
12:00 AM39 °FLight rain. Mostly cloudy.9 mph100%29.65 "Hg9 mi
11:04 PM
Apr 22
39 °FLight rain. Fog.8 mph100%29.66 "Hg6 mi
10:46 PM39 °FLight rain. Fog.8 mph93%29.66 "Hg5 mi
10:00 PM39 °FLow clouds.9 mph93%29.66 "Hg8 mi
9:48 PM39 °FFog.14 mph93%29.66 "Hg6 mi
9:00 PM39 °FOvercast.12 mph93%29.65 "Hg9 mi
8:00 PM41 °FOvercast.15 mph87%29.63 "Hg9 mi
7:00 PM41 °FOvercast.17 mph87%29.62 "Hg9 mi
6:00 PM41 °FOvercast.20 mph87%29.62 "Hg9 mi
5:00 PM43 °FOvercast.16 mph87%29.60 "Hg9 mi
4:00 PM46 °FLight rain. Overcast.14 mph87%29.57 "Hg9 mi
3:01 PM50 °FPartly sunny.14 mph76%29.55 "Hg9 mi
2:04 PM50 °FBroken clouds.14 mph82%29.55 "Hg9 mi
1:59 PM50 °FBroken clouds.16 mph82%29.55 "Hg9 mi
1:00 PM50 °FOvercast.22 mph88%29.56 "Hg9 mi
12:00 PM54 °FOvercast.10 mph88%29.54 "Hg9 mi
11:00 AM54 °FOvercast.9 mph94%29.53 "Hg9 mi
Weather by CustomWeather, © 2014

See weather overview